TimeEDT,TemperatureF,Dew PointF,Humidity,Sea Level PressureIn,VisibilityMPH,Wind Direction,Wind SpeedMPH,Gust SpeedMPH,PrecipitationIn,Events,Conditions,WindDirDegrees,DateUTC
12:56 AM,73.9,68.0,82,30.01,10.0,SW,5.8,-,N/A,,Clear,220,2013-08-28 04:56:00
1:56 AM,73.0,68.0,84,29.99,10.0,SW,6.9,-,N/A,,Clear,220,2013-08-28 05:56:00
2:56 AM,73.0,68.0,84,29.99,10.0,WSW,5.8,-,N/A,,Clear,250,2013-08-28 06:56:00
3:56 AM,73.9,68.0,82,29.98,10.0,SW,8.1,-,N/A,,Clear,230,2013-08-28 07:56:00
4:56 AM,73.9,68.0,82,29.97,10.0,SW,6.9,-,N/A,,Clear,230,2013-08-28 08:56:00
5:56 AM,73.0,68.0,84,29.98,10.0,SW,6.9,-,N/A,,Clear,220,2013-08-28 09:56:00
6:56 AM,73.9,68.0,82,29.98,10.0,SW,8.1,-,N/A,,Clear,220,2013-08-28 10:56:00
7:56 AM,75.9,69.1,79,29.99,10.0,WSW,8.1,-,N/A,,Clear,240,2013-08-28 11:56:00
8:56 AM,78.1,69.1,74,29.99,10.0,SW,10.4,-,N/A,,Clear,220,2013-08-28 12:56:00
9:56 AM,82.0,71.1,69,29.99,10.0,SW,8.1,-,N/A,,Clear,230,2013-08-28 13:56:00
10:56 AM,84.9,73.0,67,29.99,9.0,SW,6.9,-,N/A,,Clear,230,2013-08-28 14:56:00
11:56 AM,84.9,73.0,67,29.98,9.0,SW,8.1,-,N/A,,Clear,230,2013-08-28 15:56:00
12:56 PM,87.1,73.9,65,29.98,8.0,WSW,10.4,-,N/A,,Clear,240,2013-08-28 16:56:00
1:56 PM,87.1,73.9,65,29.96,8.0,SW,10.4,-,N/A,,Clear,220,2013-08-28 17:56:00
2:56 PM,88.0,75.0,65,29.94,8.0,SSW,9.2,-,N/A,,Partly Cloudy,210,2013-08-28 18:56:00
3:56 PM,87.1,75.0,67,29.94,8.0,SW,10.4,-,N/A,,Partly Cloudy,230,2013-08-28 19:56:00
4:56 PM,84.0,75.0,74,29.93,8.0,SW,12.7,-,N/A,,Clear,220,2013-08-28 20:56:00
5:56 PM,82.9,75.9,79,29.93,7.0,SW,8.1,-,N/A,,Scattered Clouds,230,2013-08-28 21:56:00
6:56 PM,82.0,75.9,82,29.92,7.0,WSW,5.8,-,0.00,,Mostly Cloudy,240,2013-08-28 22:56:00
7:56 PM,80.1,77.0,90,29.94,7.0,WSW,3.5,-,0.00,,Partly Cloudy,240,2013-08-28 23:56:00
8:56 PM,80.1,75.9,87,29.93,7.0,SSW,5.8,-,N/A,,Scattered Clouds,210,2013-08-29 00:56:00
9:56 PM,79.0,75.9,90,29.93,7.0,SW,5.8,-,N/A,,Overcast,220,2013-08-29 01:56:00
10:56 PM,80.1,75.9,87,29.92,7.0,SSW,4.6,-,N/A,,Overcast,200,2013-08-29 02:56:00
11:56 PM,79.0,77.0,94,29.91,6.0,SSW,6.9,-,0.00,,Scattered Clouds,210,2013-08-29 03:56:00